Dewpoint
57 56 57 58 59 59 59 60 59 58 56 55 56 57 56 57 57 51 50 53 53 55 49 42 42 42 43 42 41 37 29 25 25 27 26 29 30 28 32 31 29 29 28 30 36
58 58 57 58 57 57 58 59 57 55 56 57 55 53 53 54 47 47 56 57 55 54 45 42 41 40 38 39 39 33 28 24 31 32 31 34 34 33 33 30 30 31 32 35 41
59 57 58 58 57 58 57 56 56 57 57 55 53 53 55 50 41 43 56 56 55 50 46 45 43 40 37 38 38 36 25 34 35 35 36 35 35 34 34 32 32 29 30 34 36
58 59 58 58 58 57 57 57 56 56 55 54 53 54 54 45 31 44 56 55 53 47 45 42 40 38 36 35 38 33 35 36 37 38 38 36 36 36 35 34 33 35 35 36 38
55 56 57 58 58 58 57 56 55 54 54 54 55 54 48 44 45 48 52 51 46 46 44 42 39 39 35 37 36 36 36 37 38 38 38 37 36 36 36 37 37 37 38 39 40
55 56 57 57 57 57 57 56 53 52 54 55 55 52 43 40 46 46 44 45 45 43 43 43 40 42 38 37 35 36 37 37 37 36 36 35 35 36 36 37 37 38 38 39 40
55 55 57 57 56 55 54 53 53 53 54 54 51 44 42 42 45 42 40 43 41 45 42 45 43 35 38 32 38 37 34 34 34 35 34 36 35 35 36 36 36 36 37 39 39
55 55 56 56 55 55 54 53 52 54 54 54 48 42 39 43 44 37 38 40 39 43 44 44 44 41 40 39 33 32 30 30 29 33 33 34 23 26 30 34 34 35 35 36 37
54 55 55 55 56 55 54 53 51 53 52 51 36 35 33 41 36 37 39 37 38 40 43 42 43 39 36 32 26 27 26 27 28 32 32 29 25 30 29 30 29 29 30 33 35
53 54 55 55 56 55 51 52 48 46 39 30 32 20 32 32 37 37 39 38 38 39 38 40 37 33 28 30 21 22 25 25 26 27 28 26 26 26 27 27 27 27 28 31 33
52 52 53 54 55 53 42 35 30 27 35 31 33 31 34 37 40 38 40 38 37 33 30 33 31 27 25 27 27 27 27 26 25 25 26 25 25 26 28 28 27 27 27 29 32
54 52 53 54 53 50 42 38 39 37 29 35 35 34 36 39 32 34 38 30 32 29 31 27 25 28 30 29 28 27 24 22 23 25 25 25 26 26 25 27 29 28 28 31 31
54 53 52 53 51 44 43 42 46 44 27 28 33 32 32 36 33 33 35 34 31 29 29 26 23 28 27 26 24 24 23 22 22 25 27 26 24 22 24 23 26 28 29 30 32
54 53 52 51 40 42 41 45 45 40 22 16 24 30 33 37 28 37 38 32 29 27 27 26 27 28 26 25 25 22 24 24 24 24 22 26 21 23 23 21 28 30 28 30 32
53 52 51 46 39 40 43 45 42 30 9 15 23 33 35 32 31 31 37 33 27 25 23 14 23 24 24 23 25 22 26 26 25 24 26 22 22 22 19 24 28 32 35 36 35
52 51 47 40 44 43 45 42 35 24 1 19 28 28 28 30 30 32 33 29 31 28 25 25 28 27 25 26 26 26 24 24 26 26 19 19 21 21 21 23 26 29 33 37 37
50 50 46 43 39 44 43 35 25 16 15 17 24 28 28 27 26 28 23 20 17 11 14 15 20 26 28 25 25 23 24 16 13 14 15 19 20 22 22 23 25 28 32 35 38
48 46 46 45 45 44 37 23 12 13 18 27 27 26 23 24 22 20 22 15 20 14 15 13 13 23 26 25 22 22 25 15 5 12 16 19 18 17 24 26 27 32 33 35 37
46 43 44 44 45 41 29 23 15 19 26 26 21 15 14 18 18 15 15 16 16 15 9 10 9 19 22 24 23 23 24 26 21 18 17 16 15 13 19 26 30 31 34 35 36
41 41 41 44 44 34 29 26 22 29 30 27 15 18 14 15 14 14 13 14 18 19 17 14 12 15 20 25 26 24 25 17 20 10 8 9 12 14 12 21 26 28 31 33 34
35 30 40 44 40 32 27 23 27 31 30 24 21 21 19 19 18 15 13 15 19 21 21 21 16 13 20 21 20 23 22 23 21 21 15 11 14 18 17 20 25 26 28 30 32
34 32 35 36 28 30 27 31 35 28 31 28 26 24 21 20 19 16 14 14 20 22 19 22 20 18 12 20 22 24 21 23 18 14 21 18 17 19 21 23 25 26 29 30 31
34 32 37 31 27 26 27 27 30 27 27 27 25 26 25 23 16 18 17 23 23 21 20 23 20 14 16 18 20 19 21 24 21 21 20 15 16 13 17 13 14 20 20 21 25
35 33 36 34 30 27 27 29 23 29 28 28 26 26 26 23 22 22 19 23 24 23 25 27 21 16 14 18 16 16 18 24 22 17 19 18 15 14 13 14 13 14 15 15 16
37 32 32 31 33 28 28 28 25 25 28 29 25 26 22 18 16 17 20 20 24 26 28 24 23 19 16 15 15 15 15 16 21 18 17 14 16 14 13 14 14 17 18 17 17
37 35 32 33 30 27 30 29 26 26 23 23 25 25 25 21 19 23 22 17 17 29 27 24 24 20 19 17 17 17 17 18 16 16 18 17 16 17 17 18 17 17 17 17 16
40 39 36 38 32 32 33 33 32 28 33 26 26 25 27 29 28 26 24 23 23 24 27 25 25 21 19 18 19 19 20 18 18 18 17 17 17 18 17 17 18 18 18 17 17
Lifted_Index
1 1 1 1 2 2 2 3 4 5 6 7 8 8 9 9 9 8 7 7 8 9 11 12 12 12 12 12 11 10 8 7 7 8 9 10 10 10 10 9 9 9 9 10 10
1 2 2 2 3 3 3 4 5 6 7 8 9 9 10 10 10 9 8 7 8 9 11 11 12 12 11 12 11 10 8 8 9 10 10 10 10 10 10 9 9 8 9 10 10
2 2 2 3 4 4 5 5 6 7 7 8 9 10 11 11 10 9 8 8 9 10 11 11 11 11 11 12 12 11 10 10 11 11 11 11 10 10 10 9 9 8 9 10 11
3 3 3 3 4 5 5 6 7 7 8 9 10 10 10 10 10 9 9 9 10 11 11 11 12 11 11 12 12 12 11 12 12 12 11 11 11 10 9 9 8 8 9 10 10
5 5 4 4 5 5 6 7 8 8 9 9 9 10 10 10 10 10 10 11 11 12 12 12 12 12 11 11 12 12 11 12 12 12 11 11 11 10 9 8 7 7 8 8 9
7 7 6 6 6 6 7 8 9 9 9 9 10 10 10 10 11 12 12 12 12 12 12 12 12 12 11 11 11 11 11 11 11 11 11 11 10 9 8 7 7 7 7 7 7
8 8 7 7 8 8 9 9 10 10 10 10 11 11 11 11 12 13 13 13 12 12 12 12 12 12 11 11 11 11 10 10 11 11 11 10 9 8 7 6 6 5 6 6 6
9 9 9 9 9 10 10 11 11 11 11 11 12 12 12 12 13 13 13 13 13 13 12 12 12 12 11 10 10 9 9 8 9 10 10 9 8 7 7 6 4 4 4 5 5
10 10 10 10 10 11 11 12 12 12 12 13 13 13 12 13 13 13 13 14 13 13 13 12 12 11 10 8 7 6 6 6 8 9 10 8 7 7 7 6 5 3 3 3 4
11 11 11 11 11 12 12 13 13 13 13 13 13 13 13 13 13 13 14 14 14 14 13 12 10 9 8 6 5 4 4 5 7 9 9 7 7 7 7 6 5 4 3 2 2
13 12 12 12 12 13 14 13 13 13 13 13 13 13 14 14 14 14 14 15 14 13 11 10 8 7 7 7 6 5 4 5 7 8 8 6 6 7 7 6 5 4 3 2 2
13 14 13 13 13 14 15 14 14 13 12 13 14 14 15 15 14 15 15 14 12 10 9 8 7 7 8 8 7 6 5 5 6 8 7 5 5 6 7 6 6 5 3 3 3
14 14 14 14 15 15 15 15 15 13 12 12 14 15 15 15 14 14 15 14 11 9 8 7 8 9 9 8 7 6 6 5 6 6 6 5 4 5 6 6 5 5 4 4 4
14 14 15 16 16 16 16 16 16 13 10 10 13 14 15 14 14 14 15 14 11 9 8 8 9 9 8 8 7 6 7 7 6 5 5 5 4 4 5 5 5 5 5 5 5
13 14 16 16 17 16 16 16 15 11 7 8 12 13 14 13 13 14 15 14 11 10 9 9 9 9 8 9 9 8 8 7 6 5 5 5 4 4 5 5 5 5 6 6 6
11 14 16 16 16 16 16 15 12 8 6 8 11 12 12 12 12 13 13 13 11 9 8 9 10 10 10 10 11 10 8 6 5 4 3 4 5 5 5 5 5 6 6 7 7
11 14 15 15 15 15 14 12 8 6 7 8 9 10 10 10 11 11 11 11 9 8 7 7 8 10 11 11 11 10 7 4 2 1 2 4 5 5 6 7 6 6 6 6 6
11 13 14 14 15 14 12 8 5 6 7 8 9 8 8 9 10 10 9 9 9 8 6 5 6 9 11 11 10 9 7 4 2 1 2 3 5 6 8 8 7 7 6 6 6
10 11 12 13 14 13 9 6 5 5 7 7 7 7 7 8 8 8 8 9 10 10 8 6 6 9 11 11 10 9 8 7 4 2 2 3 4 6 8 8 8 8 7 7 7
8 9 10 12 13 11 7 5 5 5 6 6 5 5 5 5 6 6 7 9 11 11 11 8 7 8 9 10 10 9 9 8 6 3 1 2 3 6 7 8 9 9 8 8 8
8 8 9 11 11 8 6 6 6 6 6 5 4 4 4 4 4 5 6 9 11 11 11 10 7 6 7 8 8 8 7 7 6 4 2 2 3 6 8 9 10 10 10 10 10
8 8 9 9 8 7 7 7 6 6 6 5 5 5 4 4 4 4 5 9 11 11 9 9 6 4 5 7 8 7 6 6 6 4 3 3 4 7 9 10 10 11 11 11 11
8 8 8 8 7 7 7 7 7 6 6 6 6 6 5 5 5 5 6 9 11 10 9 7 5 3 3 5 6 5 5 5 5 4 3 3 4 7 9 10 11 11 11 11 11
8 8 8 8 7 7 7 7 7 7 7 6 6 7 6 6 6 6 6 8 9 9 8 7 5 3 3 3 4 4 4 5 4 4 3 2 4 7 9 10 10 11 11 11 11
8 8 8 8 8 7 7 7 7 7 7 7 7 7 7 7 7 7 7 7 7 7 7 7 5 4 4 3 3 3 3 3 3 3 3 3 4 7 9 10 10 10 10 10 10
8 8 8 8 7 7 7 7 7 7 8 7 7 7 7 7 7 7 7 7 7 7 7 6 6 5 4 4 3 3 2 3 3 3 3 4 5 8 10 10 9 9 9 8 8
8 8 8 7 7 7 7 7 7 8 8 8 8 8 7 7 7 8 8 8 7 7 7 7 6 5 5 4 4 3 2 3 3 3 4 4 6 8 9 9 9 8 8 8 8